Regional Weather Roundup
Issued by NWS Northern Indiana

Home | Current Version | Previous Version | Graphics & Text | Print | Product List | Glossary On
Versions: 1 2 3 4 5 6 7 8 9 10 11 12 13 14 15 16 17 18 19 20 21 22 23 24 25 26 27 28 29 30 31 32 33 34 35 36 37 38 39 40 41 42 43 44 45 46 47 48 49 50
000
ASUS43 KIWX 241000
RWRIWX

KIWX WEATHER ROUNDUP
NATIONAL WEATHER SERVICE NORTHERN INDIANA
500 AM EST FRI FEB 24 2017

NOTE: "FAIR" INDICATES FEW OR NO CLOUDS BELOW 12,000 FEET WITH NO
SIGNIFICANT WEATHER AND/OR OBSTRUCTIONS TO VISIBILITY.

* THESE STATIONS ARE NOT UNDER NWS QUALITY CONTROL. THEY ALSO MAY NOT
  REPORT WEATHER SUCH AS PRECIPITATION OR FOG.

INZ001>027-241100-
NORTHERN INDIANA

CITY           SKY/WX    TMP DP  RH WIND       PRES   REMARKS
MICHIGAN CITY* CLOUDY    45  45 100 CALM      29.53F FOG
KNOX*          CLEAR     55  39  54 S13       29.52F
SOUTH BEND     PTCLDY    50  50 100 E10       29.55R FOG
GOSHEN         PTCLDY    51  47  86 SE17      29.57F
ANGOLA*        CLOUDY    45  45 100 SE8       29.62F
FORT WAYNE     PTCLDY    48  46  93 E9        29.62F FOG
PERU/GRISSOM   CLEAR     57  57 100 S13       29.55F

$$
INZ028>050-241100-
CENTRAL INDIANA

CITY           SKY/WX    TMP DP  RH WIND       PRES   REMARKS
LAFAYETTE      PTCLDY    59  54  83 SE9       29.54F
KOKOMO*        CLEAR     57  54  89 S15       29.59F
MUNCIE*        CLEAR     60  53  77 S13       29.62F
INDIANAPOLIS   PTCLDY    59  53  80 SE10      29.59F

$$
MIZ043>046-050>051-056>058-064>065-071>073-077>080-241100-
SOUTHWEST LOWER MICHIGAN

CITY           SKY/WX    TMP DP  RH WIND       PRES   REMARKS
BATTLE CREEK   LGT RAIN  41  39  93 SE8G25    29.62F
BENTON HARBOR  CLOUDY    49  46  90 E9        29.55F
COLDWATER*     CLOUDY    44  42  95 E12       29.61F
HILLSDALE*     DRIZZLE   39  37  93 SE10G17   29.64F
HOLLAND        CLOUDY    39  36  89 E14G25    29.62F
GRAND RAPIDS   LGT RAIN  36  35  96 E20G25    29.66R
KALAMAZOO      CLOUDY    44  40  85 NE5       29.62S
STURGIS*       CLOUDY    44  43  97 SE13      29.58F
THREE RIVERS*  MOCLDY    45  43  93 E6G20     29.59F

$$
OHZ001>008-015>018-024>025-241100-
NORTHWEST OHIO

CITY           SKY/WX    TMP DP  RH WIND       PRES   REMARKS
DEFIANCE       CLOUDY    42  41  96 E13       29.66F
FINDLAY        MOCLDY    48  44  86 E5        29.68F
TOLEDO EXPRESS CLOUDY    41  41 100 E13       29.68F
TOLEDO METCALF CLOUDY    42  42 100 NE6       29.72F
LIMA           CLOUDY    59  55  87 S9        29.67F

$$
AND FOR LAKE MICHIGAN COASTAL AND OPEN LAKE BUOY OBSERVATIONS

STATION/POSITION TEMP    WIND        PRES    VSBY  WAVE
                 AIR SEA DIR/SP/G                  HT/PER
                 (F)     (DEG/KT/KT) (MB)    (MI)  (FT/S)
CALUMET HARBOR    38     340/  6/  7  999.8F
MICHIGAN CITY     40      50/  2/  2   N/A
BURNS HARBOR      41     100/  5/  7 1000.7F

$$
&&




USA.gov is the U.S. government's official web portal to all federal, state and local government web resources and services.